Simultaneous Nadir Overpasses (SNOs) Predictions

Prediction of SNOs between LANDSAT-8 and TERRA Satellite Orbit:

Table of predicted SNOs for the next 14.0 days since TLE Epoch: 12/27/2024
Index Date (LANDSAT-8) Time (LANDSAT-8) Lat,Lon (LANDSAT-8) SZA (LANDSAT-8 ) Date (TERRA) Time (TERRA) Lat,Lon (TERRA) SZA (TERRA ) Distance(km) Time Diff (sec)
1 01/09/2025 20:22:37 81.82, -59.75 108.20 01/09/2025 20:23:49 81.82, -59.91 108.22 2.55 72
2 01/09/2025 21:12:04 -81.83, 107.78 71.82 01/09/2025 21:13:09 -81.82, 107.86 71.78 1.48 65
3 01/09/2025 22:01:30 81.82, -84.50 108.19 01/09/2025 22:02:29 81.82, -84.65 108.20 2.26 59
4 01/09/2025 22:50:57 -81.83, 83.03 71.84 01/09/2025 22:51:49 -81.82, 83.13 71.80 1.69 52
5 01/09/2025 23:40:23 81.83,-109.26 108.17 01/09/2025 23:41:09 81.83,-109.38 108.18 1.99 46
6 01/10/2025 00:29:50 -81.83, 58.28 71.85 01/10/2025 00:30:29 -81.82, 58.40 71.82 1.95 39
7 01/10/2025 01:19:16 81.83,-134.01 108.16 01/10/2025 01:19:49 81.83,-134.12 108.16 1.75 33
8 01/10/2025 02:08:43 -81.83, 33.52 71.87 01/10/2025 02:09:09 -81.83, 33.66 71.84 2.24 26
9 01/10/2025 02:58:09 81.83,-158.77 108.14 01/10/2025 02:58:29 81.83,-158.85 108.14 1.55 20



Historial Predications of SNOs between LANDSAT-8 and TERRA
